| time (UTC) | temp F | wind direction | speed MPH | gust MPH | rain 1hr in | rain 24hr in | rain mn in | humidity % | barometer mb |
| 20260507013730 | 78 | 122 | 3.0 | 5.0 | 0.00 | 0.00 | 0.00 | 80 | 1012.9 |
| 20260507013232 | 78 | 130 | 3.0 | 6.0 | 0.00 | 0.00 | 0.00 | 80 | 1012.9 |
| 20260507013042 | 77 | 109 | 3.0 | 6.0 | 0.00 | 0.00 | 0.00 | 79 | 1012.7 |
| 20260507012727 | 78 | 107 | 3.0 | 6.0 | 0.00 | 0.00 | 0.00 | 79 | 1012.9 |
| 20260507012511 | 78 | 116 | 3.0 | 6.0 | 0.00 | 0.00 | 0.00 | 79 | 1012.9 |
| 20260507011714 | 78 | 121 | 3.0 | 5.0 | 0.00 | 0.00 | 0.00 | 78 | 1012.9 |
| 20260507011534 | 77 | 113 | 2.0 | 5.0 | 0.00 | 0.00 | 0.00 | 78 | 1012.7 |
| 20260507011202 | 78 | 103 | 3.0 | 5.0 | 0.00 | 0.00 | 0.00 | 78 | 1012.8 |
| 20260507010702 | 78 | 105 | 3.0 | 5.0 | 0.00 | 0.00 | 0.00 | 78 | 1012.8 |
| 20260507010203 | 78 | 123 | 3.0 | 6.0 | 0.00 | 0.00 | 0.00 | 78 | 1012.8 |
| 20260507010011 | 78 | 113 | 3.0 | 7.0 | 0.00 | 0.00 | 0.00 | 77 | 1012.6 |
| 20260507005702 | 78 | 124 | 4.0 | 7.0 | 0.00 | 0.00 | 0.00 | 77 | 1012.8 |
| 20260507005202 | 78 | 121 | 3.0 | 7.0 | 0.00 | 0.00 | 0.00 | 77 | 1012.8 |
| 20260507004704 | 78 | 129 | 3.0 | 5.0 | 0.00 | 0.00 | 0.00 | 76 | 1012.8 |
| 20260507004504 | 78 | 109 | 3.0 | 4.0 | 0.00 | 0.00 | 0.00 | 76 | 1012.5 |
| 20260507004204 | 78 | 120 | 3.0 | 5.0 | 0.00 | 0.00 | 0.00 | 76 | 1012.6 |
| 20260507003702 | 78 | 101 | 3.0 | 7.0 | 0.00 | 0.00 | 0.00 | 76 | 1012.6 |
| 20260507003204 | 79 | 118 | 3.0 | 7.0 | 0.00 | 0.00 | 0.00 | 74 | 1012.6 |
| 20260507003004 | 78 | 111 | 3.0 | 5.0 | 0.00 | 0.00 | 0.00 | 74 | 1012.4 |
| 20260507002702 | 79 | 102 | 3.0 | 8.0 | 0.00 | 0.00 | 0.00 | 74 | 1012.6 |
| 20260507002449 | 79 | 115 | 5.0 | 8.0 | 0.00 | 0.00 | 0.00 | 73 | 1012.6 |
| 20260507001718 | 79 | 119 | 5.0 | 8.0 | 0.00 | 0.00 | 0.00 | 73 | 1012.6 |
| 20260507001619 | 79 | 134 | 4.0 | 8.0 | 0.00 | 0.00 | 0.00 | 73 | 1012.4 |
| 20260507001200 | 79 | 115 | 5.0 | 8.0 | 0.00 | 0.00 | 0.00 | 73 | 1012.6 |
| 20260507000948 | 79 | 115 | 4.0 | 8.0 | 0.00 | 0.00 | 0.00 | 72 | 1012.6 |
| 20260507000201 | 79 | 109 | 4.0 | 8.0 | 0.00 | 0.00 | 0.00 | 72 | 1012.6 |
| 20260507000049 | 79 | 94 | 3.0 | 8.0 | 0.00 | 0.00 | 0.00 | 71 | 1012.4 |
| 20260506235702 | 80 | 116 | 4.0 | 10.0 | 0.00 | 0.00 | 0.00 | 72 | 1012.5 |
| 20260506235203 | 80 | 114 | 5.0 | 10.0 | 0.00 | 0.00 | 0.00 | 70 | 1012.5 |
| 20260506234701 | 80 | 132 | 6.0 | 11.0 | 0.00 | 0.00 | 0.00 | 71 | 1012.5 |
| 20260506234545 | 80 | 110 | 5.0 | 11.0 | 0.00 | 0.00 | 0.00 | 69 | 1012.4 |
| 20260506234201 | 80 | 126 | 8.0 | 15.0 | 0.00 | 0.00 | 0.00 | 68 | 1012.6 |
| 20260506233956 | 80 | 108 | 7.0 | 15.0 | 0.00 | 0.00 | 0.00 | 66 | 1012.6 |
| 20260506233452 | 81 | 101 | 6.0 | 10.0 | 0.00 | 0.00 | 0.00 | 67 | 1012.6 |
| 20260506233049 | 80 | 103 | 6.0 | 10.0 | 0.00 | 0.00 | 0.00 | 67 | 1012.4 |
| 20260506232702 | 81 | 82 | 6.0 | 11.0 | 0.00 | 0.00 | 0.00 | 67 | 1012.6 |
| 20260506232202 | 81 | 88 | 7.0 | 11.0 | 0.00 | 0.00 | 0.00 | 67 | 1012.6 |
| 20260506231701 | 81 | 96 | 8.0 | 13.0 | 0.00 | 0.00 | 0.00 | 64 | 1012.6 |
| 20260506231540 | 81 | 96 | 7.0 | 13.0 | 0.00 | 0.00 | 0.00 | 63 | 1012.5 |
| 20260506231201 | 82 | 123 | 8.0 | 15.0 | 0.00 | 0.00 | 0.00 | 63 | 1012.6 |
| 20260506230701 | 82 | 92 | 8.0 | 15.0 | 0.00 | 0.00 | 0.00 | 63 | 1012.6 |
| 20260506230203 | 82 | 138 | 8.0 | 13.0 | 0.00 | 0.00 | 0.00 | 63 | 1012.6 |
| 20260506230032 | 81 | 126 | 8.0 | 13.0 | 0.00 | 0.00 | 0.00 | 62 | 1012.4 |
| 20260506225702 | 82 | 105 | 8.0 | 13.0 | 0.00 | 0.00 | 0.00 | 63 | 1012.6 |
| 20260506225202 | 82 | 110 | 8.0 | 14.0 | 0.00 | 0.00 | 0.00 | 64 | 1012.6 |
| 20260506224701 | 82 | 122 | 8.0 | 14.0 | 0.00 | 0.00 | 0.00 | 62 | 1012.6 |
| 20260506224527 | 82 | 96 | 8.0 | 14.0 | 0.00 | 0.00 | 0.00 | 64 | 1012.4 |
| 20260506224200 | 83 | 118 | 8.0 | 14.0 | 0.00 | 0.00 | 0.00 | 65 | 1012.5 |
| 20260506224051 | 83 | 117 | 7.0 | 14.0 | 0.00 | 0.00 | 0.00 | 64 | 1012.5 |
| 20260506224045 | 82 | 119 | 8.0 | 14.0 | 0.00 | 0.00 | 0.00 | 64 | 1012.5 |
| 20260506223019 | 82 | 102 | 7.0 | 13.0 | 0.00 | 0.00 | 0.00 | 63 | 1012.4 |
| 20260506222700 | 83 | 80 | 7.0 | 14.0 | 0.00 | 0.00 | 0.00 | 63 | 1012.6 |
| 20260506222448 | 83 | 93 | 8.0 | 13.0 | 0.00 | 0.00 | 0.00 | 65 | 1012.6 |
| 20260506221702 | 83 | 111 | 8.0 | 13.0 | 0.00 | 0.00 | 0.00 | 64 | 1012.6 |
| 20260506221517 | 82 | 92 | 8.0 | 12.0 | 0.00 | 0.00 | 0.00 | 62 | 1012.4 |
| 20260506221201 | 83 | 138 | 8.0 | 14.0 | 0.00 | 0.00 | 0.00 | 62 | 1012.5 |
| 20260506220703 | 83 | 79 | 9.0 | 14.0 | 0.00 | 0.00 | 0.00 | 62 | 1012.5 |
| 20260506220204 | 83 | 92 | 9.0 | 14.0 | 0.00 | 0.00 | 0.00 | 66 | 1012.5 |
| 20260506220003 | 82 | 88 | 9.0 | 13.0 | 0.00 | 0.00 | 0.00 | 65 | 1012.4 |
| 20260506215702 | 83 | 126 | 7.0 | 14.0 | 0.00 | 0.00 | 0.00 | 65 | 1012.6 |
| 20260506215452 | 83 | 82 | 7.0 | 15.0 | 0.00 | 0.00 | 0.00 | 61 | 1012.6 |
| 20260506214704 | 83 | 63 | 8.0 | 15.0 | 0.00 | 0.00 | 0.00 | 66 | 1012.6 |
| 20260506214502 | 83 | 122 | 9.0 | 14.0 | 0.00 | 0.00 | 0.00 | 65 | 1012.4 |
| 20260506214202 | 83 | 115 | 8.0 | 14.0 | 0.00 | 0.00 | 0.00 | 64 | 1012.6 |
| 20260506213703 | 84 | 104 | 8.0 | 14.0 | 0.00 | 0.00 | 0.00 | 64 | 1012.6 |
| 20260506213203 | 84 | 97 | 8.0 | 14.0 | 0.00 | 0.00 | 0.00 | 64 | 1012.6 |
| 20260506213008 | 84 | 86 | 7.0 | 13.0 | 0.00 | 0.00 | 0.00 | 64 | 1012.4 |
| 20260506212704 | 84 | 136 | 7.0 | 13.0 | 0.00 | 0.00 | 0.00 | 61 | 1012.6 |
| 20260506212203 | 84 | 78 | 7.0 | 16.0 | 0.00 | 0.00 | 0.00 | 62 | 1012.6 |
| 20260506211703 | 84 | 108 | 8.0 | 16.0 | 0.00 | 0.00 | 0.00 | 62 | 1012.6 |
| 20260506211505 | 84 | 117 | 8.0 | 16.0 | 0.00 | 0.00 | 0.00 | 61 | 1012.4 |
| 20260506211204 | 84 | 122 | 8.0 | 13.0 | 0.00 | 0.00 | 0.00 | 62 | 1012.6 |
| 20260506210957 | 84 | 94 | 8.0 | 13.0 | 0.00 | 0.00 | 0.00 | 61 | 1012.6 |
| 20260506210204 | 84 | 130 | 9.0 | 16.0 | 0.00 | 0.00 | 0.00 | 59 | 1012.6 |
| 20260506210003 | 84 | 136 | 7.0 | 16.0 | 0.00 | 0.00 | 0.00 | 60 | 1012.4 |
| 20260506205703 | 84 | 114 | 8.0 | 16.0 | 0.00 | 0.00 | 0.00 | 59 | 1012.6 |
| 20260506205203 | 84 | 102 | 7.0 | 13.0 | 0.00 | 0.00 | 0.00 | 60 | 1012.6 |
| 20260506204701 | 84 | 78 | 7.0 | 15.0 | 0.00 | 0.00 | 0.00 | 64 | 1012.6 |
| 20260506204504 | 84 | 107 | 8.0 | 13.0 | 0.00 | 0.00 | 0.00 | 62 | 1012.4 |
| 20260506204206 | 84 | 92 | 8.0 | 15.0 | 0.00 | 0.00 | 0.00 | 63 | 1012.6 |
| 20260506203707 | 84 | 89 | 9.0 | 16.0 | 0.00 | 0.00 | 0.00 | 59 | 1012.6 |
| 20260506203201 | 84 | 116 | 9.0 | 16.0 | 0.00 | 0.00 | 0.00 | 60 | 1012.6 |
| 20260506203049 | 84 | 132 | 9.0 | 13.0 | 0.00 | 0.00 | 0.00 | 62 | 1012.4 |
| 20260506202758 | 84 | 77 | 9.0 | 16.0 | 0.00 | 0.00 | 0.00 | 58 | 1012.6 |
| 20260506202740 | 84 | 114 | 10.0 | 16.0 | 0.00 | 0.00 | 0.00 | 61 | 1012.6 |
| 20260506201701 | 85 | 115 | 9.0 | 15.0 | 0.00 | 0.00 | 0.00 | 61 | 1012.6 |
| 20260506201532 | 84 | 124 | 9.0 | 15.0 | 0.00 | 0.00 | 0.00 | 60 | 1012.6 |
| 20260506201202 | 85 | 98 | 8.0 | 16.0 | 0.00 | 0.00 | 0.00 | 56 | 1012.7 |
| 20260506201000 | 84 | 95 | 9.0 | 16.0 | 0.00 | 0.00 | 0.00 | 60 | 1012.7 |
| 20260506200201 | 85 | 122 | 9.0 | 16.0 | 0.00 | 0.00 | 0.00 | 57 | 1012.7 |
| 20260506200023 | 84 | 113 | 9.0 | 16.0 | 0.00 | 0.00 | 0.00 | 58 | 1012.6 |
| 20260506195701 | 85 | 83 | 8.0 | 16.0 | 0.00 | 0.00 | 0.00 | 58 | 1012.7 |
| 20260506195201 | 85 | 104 | 8.0 | 15.0 | 0.00 | 0.00 | 0.00 | 56 | 1012.7 |
| 20260506194700 | 85 | 90 | 7.0 | 15.0 | 0.00 | 0.00 | 0.00 | 57 | 1012.7 |
| 20260506194506 | 85 | 79 | 8.0 | 14.0 | 0.00 | 0.00 | 0.00 | 57 | 1012.7 |
| 20260506194204 | 85 | 86 | 7.0 | 14.0 | 0.00 | 0.00 | 0.00 | 58 | 1012.8 |
| 20260506193702 | 85 | 128 | 8.0 | 14.0 | 0.00 | 0.00 | 0.00 | 56 | 1012.8 |
| 20260506193203 | 85 | 109 | 8.0 | 13.0 | 0.00 | 0.00 | 0.00 | 56 | 1012.8 |
| 20260506193002 | 85 | 96 | 7.0 | 15.0 | 0.00 | 0.00 | 0.00 | 56 | 1012.9 |
| 20260506192702 | 85 | 90 | 8.0 | 15.0 | 0.00 | 0.00 | 0.00 | 57 | 1013.0 |
| 20260506192202 | 85 | 100 | 8.0 | 15.0 | 0.00 | 0.00 | 0.00 | 53 | 1013.0 |
| 20260506191704 | 85 | 117 | 8.0 | 15.0 | 0.00 | 0.00 | 0.00 | 54 | 1013.0 |
| 20260506191504 | 85 | 94 | 9.0 | 14.0 | 0.00 | 0.00 | 0.00 | 53 | 1013.0 |
| 20260506191204 | 85 | 103 | 8.0 | 17.0 | 0.00 | 0.00 | 0.00 | 54 | 1013.1 |
| 20260506190702 | 85 | 128 | 7.0 | 17.0 | 0.00 | 0.00 | 0.00 | 55 | 1013.1 |
| 20260506190205 | 86 | 119 | 6.0 | 14.0 | 0.00 | 0.00 | 0.00 | 51 | 1013.1 |
| 20260506190006 | 85 | 126 | 6.0 | 11.0 | 0.00 | 0.00 | 0.00 | 53 | 1013.2 |
| 20260506185702 | 85 | 136 | 7.0 | 14.0 | 0.00 | 0.00 | 0.00 | 51 | 1013.4 |
| 20260506185202 | 85 | 100 | 8.0 | 14.0 | 0.00 | 0.00 | 0.00 | 51 | 1013.4 |
| 20260506185043 | 85 | 119 | 7.0 | 13.0 | 0.00 | 0.00 | 0.00 | 53 | 1013.5 |
| 20260506184734 | 85 | 95 | 7.0 | 12.0 | 0.00 | 0.00 | 0.00 | 53 | 1013.4 |
| 20260506183702 | 85 | 63 | 7.0 | 13.0 | 0.00 | 0.00 | 0.00 | 48 | 1013.5 |
| 20260506183205 | 85 | 123 | 7.0 | 12.0 | 0.00 | 0.00 | 0.00 | 55 | 1013.5 |
| 20260506183109 | 85 | 126 | 7.0 | 12.0 | 0.00 | 0.00 | 0.00 | 52 | 1013.4 |
| 20260506182701 | 85 | 107 | 7.0 | 12.0 | 0.00 | 0.00 | 0.00 | 56 | 1013.6 |
| 20260506182202 | 85 | 124 | 7.0 | 13.0 | 0.00 | 0.00 | 0.00 | 55 | 1013.6 |
| 20260506181702 | 85 | 96 | 8.0 | 13.0 | 0.00 | 0.00 | 0.00 | 56 | 1013.6 |
| 20260506181536 | 85 | 90 | 8.0 | 13.0 | 0.00 | 0.00 | 0.00 | 56 | 1013.4 |
| 20260506181203 | 85 | 91 | 8.0 | 13.0 | 0.00 | 0.00 | 0.00 | 60 | 1013.6 |
| 20260506180702 | 85 | 100 | 7.0 | 14.0 | 0.00 | 0.00 | 0.00 | 57 | 1013.6 |
| 20260506180200 | 85 | 138 | 7.0 | 14.0 | 0.00 | 0.00 | 0.00 | 59 | 1013.6 |
| 20260506180037 | 84 | 116 | 5.0 | 14.0 | 0.00 | 0.00 | 0.00 | 59 | 1013.6 |
| 20260506175700 | 85 | 82 | 7.0 | 13.0 | 0.00 | 0.00 | 0.00 | 59 | 1013.7 |
| 20260506175202 | 85 | 111 | 6.0 | 11.0 | 0.00 | 0.00 | 0.00 | 59 | 1013.7 |
| 20260506174707 | 85 | 123 | 6.0 | 13.0 | 0.00 | 0.00 | 0.00 | 59 | 1013.7 |
| 20260506174527 | 85 | 119 | 6.0 | 11.0 | 0.00 | 0.00 | 0.00 | 57 | 1013.6 |
| 20260506174203 | 85 | 109 | 7.0 | 13.0 | 0.00 | 0.00 | 0.00 | 59 | 1013.7 |
| 20260506173703 | 85 | 86 | 7.0 | 13.0 | 0.00 | 0.00 | 0.00 | 56 | 1013.7 |
| 20260506173202 | 85 | 117 | 6.0 | 13.0 | 0.00 | 0.00 | 0.00 | 55 | 1013.7 |
| 20260506173019 | 85 | 120 | 6.0 | 13.0 | 0.00 | 0.00 | 0.00 | 55 | 1013.6 |
| 20260506172702 | 85 | 108 | 6.0 | 11.0 | 0.00 | 0.00 | 0.00 | 56 | 1013.8 |
| 20260506172219 | 85 | 97 | 6.0 | 14.0 | 0.00 | 0.00 | 0.00 | 58 | 1013.8 |
| 20260506171704 | 85 | 109 | 7.0 | 14.0 | 0.00 | 0.00 | 0.00 | 54 | 1013.8 |
| 20260506171505 | 84 | 113 | 5.0 | 13.0 | 0.00 | 0.00 | 0.00 | 59 | 1013.8 |
| 20260506171203 | 85 | 132 | 7.0 | 13.0 | 0.00 | 0.00 | 0.00 | 58 | 1013.9 |
| 20260506170746 | 85 | 122 | 6.0 | 10.0 | 0.00 | 0.00 | 0.00 | 59 | 1013.9 |
| 20260506170734 | 85 | 113 | 6.0 | 12.0 | 0.00 | 0.00 | 0.00 | 58 | 1013.9 |
| 20260506170003 | 84 | 123 | 6.0 | 10.0 | 0.00 | 0.00 | 0.00 | 59 | 1013.9 |
| 20260506165747 | 85 | 127 | 6.0 | 12.0 | 0.00 | 0.00 | 0.00 | 59 | 1014.0 |
| 20260506165736 | 85 | 123 | 6.0 | 10.0 | 0.00 | 0.00 | 0.00 | 58 | 1014.0 |
| 20260506164701 | 84 | 122 | 7.0 | 13.0 | 0.00 | 0.00 | 0.00 | 61 | 1014.0 |
| 20260506164551 | 84 | 104 | 6.0 | 13.0 | 0.00 | 0.00 | 0.00 | 60 | 1013.9 |
| 20260506164202 | 84 | 101 | 8.0 | 13.0 | 0.00 | 0.00 | 0.00 | 59 | 1014.0 |
| 20260506163701 | 85 | 112 | 6.0 | 11.0 | 0.00 | 0.00 | 0.00 | 61 | 1014.0 |
| 20260506163201 | 85 | 94 | 5.0 | 11.0 | 0.00 | 0.00 | 0.00 | 63 | 1014.0 |
| 20260506163044 | 84 | 121 | 3.0 | 11.0 | 0.00 | 0.00 | 0.00 | 63 | 1014.0 |
| 20260506162701 | 85 | 119 | 6.0 | 13.0 | 0.00 | 0.00 | 0.00 | 63 | 1014.1 |
| 20260506162200 | 84 | 91 | 6.0 | 13.0 | 0.00 | 0.00 | 0.00 | 60 | 1014.1 |
| 20260506161702 | 85 | 111 | 5.0 | 11.0 | 0.00 | 0.00 | 0.00 | 63 | 1014.1 |
| 20260506161544 | 84 | 76 | 4.0 | 10.0 | 0.00 | 0.00 | 0.00 | 65 | 1014.0 |
| 20260506161201 | 84 | 97 | 5.0 | 10.0 | 0.00 | 0.00 | 0.00 | 63 | 1014.1 |
| 20260506160701 | 84 | 123 | 4.0 | 8.0 | 0.00 | 0.00 | 0.00 | 63 | 1014.1 |
| 20260506160202 | 84 | 88 | 5.0 | 10.0 | 0.00 | 0.00 | 0.00 | 65 | 1014.1 |
| 20260506160018 | 83 | 138 | 4.0 | 10.0 | 0.00 | 0.00 | 0.00 | 66 | 1014.2 |
| 20260506155702 | 83 | 82 | 6.0 | 10.0 | 0.00 | 0.00 | 0.00 | 65 | 1014.3 |
| 20260506155203 | 83 | 132 | 5.0 | 11.0 | 0.00 | 0.00 | 0.00 | 64 | 1014.3 |
| 20260506154704 | 83 | 140 | 5.0 | 11.0 | 0.00 | 0.00 | 0.00 | 67 | 1014.3 |
| 20260506154504 | 83 | 96 | 3.0 | 10.0 | 0.00 | 0.00 | 0.00 | 67 | 1014.0 |
| 20260506154204 | 83 | 115 | 6.0 | 10.0 | 0.00 | 0.00 | 0.00 | 67 | 1014.1 |
| 20260506153703 | 83 | 89 | 5.0 | 10.0 | 0.00 | 0.00 | 0.00 | 66 | 1014.1 |
| 20260506153202 | 83 | 85 | 5.0 | 10.0 | 0.00 | 0.00 | 0.00 | 69 | 1014.1 |
| 20260506153005 | 82 | 141 | 3.0 | 9.0 | 0.00 | 0.00 | 0.00 | 72 | 1014.0 |
| 20260506152945 | 83 | 129 | 5.0 | 9.0 | 0.00 | 0.00 | 0.00 | 69 | 1014.1 |
| 20260506152202 | 83 | 103 | 6.0 | 10.0 | 0.00 | 0.00 | 0.00 | 71 | 1014.1 |
| 20260506151704 | 82 | 125 | 5.0 | 11.0 | 0.00 | 0.00 | 0.00 | 71 | 1014.1 |
| 20260506151505 | 82 | 123 | 6.0 | 11.0 | 0.00 | 0.00 | 0.00 | 68 | 1014.0 |
| 20260506151203 | 82 | 118 | 4.0 | 11.0 | 0.00 | 0.00 | 0.00 | 75 | 1014.1 |
| 20260506150704 | 82 | 128 | 6.0 | 10.0 | 0.00 | 0.00 | 0.00 | 76 | 1014.1 |
| 20260506150203 | 82 | 69 | 6.0 | 10.0 | 0.00 | 0.00 | 0.00 | 75 | 1014.1 |
| 20260506150005 | 81 | 113 | 5.0 | 10.0 | 0.00 | 0.00 | 0.00 | 77 | 1014.0 |
| 20260506145702 | 82 | 96 | 6.0 | 10.0 | 0.00 | 0.00 | 0.00 | 76 | 1014.1 |
| 20260506145204 | 82 | 83 | 5.0 | 10.0 | 0.00 | 0.00 | 0.00 | 75 | 1014.1 |
| 20260506144704 | 81 | 97 | 5.0 | 10.0 | 0.00 | 0.00 | 0.00 | 77 | 1014.1 |
| 20260506144504 | 81 | 89 | 6.0 | 10.0 | 0.00 | 0.00 | 0.00 | 76 | 1013.9 |
| 20260506144202 | 81 | 111 | 5.0 | 10.0 | 0.00 | 0.00 | 0.00 | 77 | 1014.0 |
| 20260506143947 | 81 | 122 | 5.0 | 10.0 | 0.00 | 0.00 | 0.00 | 78 | 1014.0 |
| 20260506143202 | 81 | 155 | 5.0 | 11.0 | 0.00 | 0.00 | 0.00 | 79 | 1014.0 |
| 20260506143003 | 80 | 76 | 5.0 | 11.0 | 0.00 | 0.00 | 0.00 | 77 | 1014.0 |
| 20260506142703 | 80 | 107 | 6.0 | 11.0 | 0.00 | 0.00 | 0.00 | 78 | 1014.1 |
| 20260506142203 | 80 | 109 | 5.0 | 9.0 | 0.00 | 0.00 | 0.00 | 81 | 1014.1 |
| 20260506142040 | 80 | 90 | 3.0 | 7.0 | 0.00 | 0.00 | 0.00 | 82 | 1013.9 |
| 20260506142035 | 80 | 127 | 3.0 | 8.0 | 0.00 | 0.00 | 0.00 | 80 | 1014.1 |
| 20260506140702 | 80 | 121 | 4.0 | 8.0 | 0.00 | 0.00 | 0.00 | 83 | 1013.9 |
| 20260506140202 | 79 | 109 | 5.0 | 9.0 | 0.00 | 0.00 | 0.00 | 83 | 1013.9 |
| 20260506140005 | 79 | 146 | 4.0 | 10.0 | 0.00 | 0.00 | 0.00 | 83 | 1013.9 |
| 20260506135702 | 79 | 128 | 5.0 | 10.0 | 0.00 | 0.00 | 0.00 | 83 | 1014.0 |
| 20260506135202 | 79 | 80 | 5.0 | 10.0 | 0.00 | 0.00 | 0.00 | 84 | 1014.0 |
| 20260506134702 | 79 | 99 | 5.0 | 8.0 | 0.00 | 0.00 | 0.00 | 85 | 1014.0 |
| 20260506134519 | 78 | 103 | 4.0 | 11.0 | 0.00 | 0.00 | 0.00 | 85 | 1013.5 |
| 20260506134447 | 79 | 86 | 6.0 | 11.0 | 0.00 | 0.00 | 0.00 | 85 | 1013.6 |
| 20260506133703 | 78 | 116 | 7.0 | 11.0 | 0.00 | 0.00 | 0.00 | 85 | 1013.6 |
| 20260506133203 | 78 | 105 | 6.0 | 9.0 | 0.00 | 0.00 | 0.00 | 85 | 1013.6 |
| 20260506133004 | 78 | 121 | 6.0 | 9.0 | 0.00 | 0.00 | 0.00 | 85 | 1013.5 |
| 20260506132702 | 78 | 141 | 6.0 | 10.0 | 0.00 | 0.00 | 0.00 | 86 | 1013.6 |
| 20260506132201 | 78 | 98 | 7.0 | 10.0 | 0.00 | 0.00 | 0.00 | 86 | 1013.6 |
| 20260506131703 | 78 | 119 | 6.0 | 10.0 | 0.00 | 0.00 | 0.00 | 86 | 1013.6 |
| 20260506131610 | 77 | 113 | 6.0 | 10.0 | 0.00 | 0.00 | 0.00 | 86 | 1013.5 |
| 20260506131202 | 78 | 130 | 5.0 | 8.0 | 0.00 | 0.00 | 0.00 | 87 | 1013.6 |
| 20260506130701 | 78 | 105 | 5.0 | 8.0 | 0.00 | 0.00 | 0.00 | 88 | 1013.6 |
| 20260506130202 | 77 | 107 | 4.0 | 8.0 | 0.00 | 0.00 | 0.00 | 89 | 1013.6 |
| 20260506130033 | 77 | 138 | 4.0 | 8.0 | 0.00 | 0.00 | 0.00 | 89 | 1013.4 |
| 20260506125701 | 77 | 89 | 3.0 | 8.0 | 0.00 | 0.00 | 0.00 | 89 | 1013.5 |
| 20260506125202 | 76 | 128 | 2.0 | 5.0 | 0.00 | 0.00 | 0.00 | 90 | 1013.5 |
| 20260506124701 | 76 | 109 | 2.0 | 3.0 | 0.00 | 0.00 | 0.00 | 91 | 1013.5 |
| 20260506124533 | 75 | 79 | 1.0 | 3.0 | 0.00 | 0.00 | 0.00 | 91 | 1013.4 |
| 20260506124202 | 75 | 97 | 2.0 | 3.0 | 0.00 | 0.00 | 0.00 | 91 | 1013.5 |
| 20260506123701 | 75 | 105 | 2.0 | 3.0 | 0.00 | 0.00 | 0.00 | 92 | 1013.5 |
| 20260506123203 | 74 | 90 | 1.0 | 3.0 | 0.00 | 0.00 | 0.00 | 93 | 1013.5 |
| 20260506123003 | 74 | 90 | 1.0 | 3.0 | 0.00 | 0.00 | 0.00 | 93 | 1013.2 |
| 20260506122953 | 74 | 103 | 0.0 | 2.0 | 0.00 | 0.00 | 0.00 | 94 | 1013.3 |
| 20260506122204 | 73 | 100 | 0.0 | 0.0 | 0.00 | 0.00 | 0.00 | 94 | 1013.3 |
| 20260506121703 | 73 | 100 | 0.0 | 0.0 | 0.00 | 0.00 | 0.00 | 94 | 1013.3 |
| 20260506121508 | 72 | 100 | 0.0 | 0.0 | 0.00 | 0.00 | 0.00 | 94 | 1013.0 |
| 20260506121204 | 72 | 100 | 0.0 | 0.0 | 0.00 | 0.00 | 0.00 | 94 | 1013.2 |
| 20260506120701 | 72 | 100 | 0.0 | 0.0 | 0.00 | 0.00 | 0.00 | 94 | 1013.2 |
| 20260506120202 | 71 | 100 | 0.0 | 0.0 | 0.00 | 0.00 | 0.00 | 94 | 1013.2 |
| 20260506120032 | 71 | 100 | 0.0 | 0.0 | 0.00 | 0.00 | 0.00 | 94 | 1013.0 |
| 20260506115702 | 71 | 100 | 0.0 | 0.0 | 0.00 | 0.00 | 0.00 | 94 | 1013.1 |
| 20260506115203 | 70 | 100 | 0.0 | 0.0 | 0.00 | 0.00 | 0.00 | 94 | 1013.1 |
| 20260506114702 | 70 | 100 | 0.0 | 0.0 | 0.00 | 0.00 | 0.00 | 94 | 1013.1 |
| 20260506114540 | 69 | 100 | 0.0 | 0.0 | 0.00 | 0.00 | 0.00 | 94 | 1013.0 |
| 20260506114201 | 69 | 100 | 0.0 | 0.0 | 0.00 | 0.00 | 0.00 | 94 | 1013.2 |
| 20260506113702 | 69 | 100 | 0.0 | 0.0 | 0.00 | 0.00 | 0.00 | 94 | 1013.2 |
| 20260506113202 | 68 | 100 | 0.0 | 0.0 | 0.00 | 0.00 | 0.00 | 94 | 1013.2 |
| 20260506113006 | 68 | 100 | 0.0 | 0.0 | 0.00 | 0.00 | 0.00 | 94 | 1013.0 |
| 20260506112954 | 68 | 100 | 0.0 | 0.0 | 0.00 | 0.00 | 0.00 | 94 | 1013.1 |
| 20260506112201 | 68 | 100 | 0.0 | 0.0 | 0.00 | 0.00 | 0.00 | 94 | 1013.1 |
| 20260506111957 | 68 | 100 | 0.0 | 0.0 | 0.00 | 0.00 | 0.00 | 94 | 1013.1 |
| 20260506111557 | 67 | 100 | 0.0 | 0.0 | 0.00 | 0.00 | 0.00 | 94 | 1013.0 |
| 20260506111200 | 68 | 100 | 0.0 | 0.0 | 0.00 | 0.00 | 0.00 | 94 | 1013.1 |
| 20260506110702 | 67 | 100 | 0.0 | 0.0 | 0.00 | 0.00 | 0.00 | 94 | 1013.1 |
| 20260506110201 | 67 | 100 | 0.0 | 0.0 | 0.00 | 0.00 | 0.00 | 94 | 1013.1 |
| 20260506110032 | 67 | 100 | 0.0 | 0.0 | 0.00 | 0.00 | 0.00 | 94 | 1012.5 |
| 20260506105701 | 67 | 100 | 0.0 | 0.0 | 0.00 | 0.00 | 0.00 | 94 | 1012.6 |
| 20260506105202 | 67 | 100 | 0.0 | 0.0 | 0.00 | 0.00 | 0.00 | 94 | 1012.6 |
| 20260506104704 | 67 | 100 | 0.0 | 0.0 | 0.00 | 0.00 | 0.00 | 94 | 1012.6 |
| 20260506104521 | 67 | 100 | 0.0 | 0.0 | 0.00 | 0.00 | 0.00 | 94 | 1012.3 |
| 20260506104202 | 67 | 100 | 0.0 | 0.0 | 0.00 | 0.00 | 0.00 | 94 | 1012.5 |
| 20260506103702 | 67 | 100 | 0.0 | 0.0 | 0.00 | 0.00 | 0.00 | 94 | 1012.5 |
| 20260506103204 | 67 | 100 | 0.0 | 0.0 | 0.00 | 0.00 | 0.00 | 94 | 1012.5 |
| 20260506103018 | 67 | 100 | 0.0 | 0.0 | 0.00 | 0.00 | 0.00 | 93 | 1012.4 |
| 20260506102704 | 67 | 100 | 0.0 | 0.0 | 0.00 | 0.00 | 0.00 | 93 | 1012.5 |
| 20260506102202 | 67 | 100 | 0.0 | 0.0 | 0.00 | 0.00 | 0.00 | 93 | 1012.5 |
| 20260506101702 | 68 | 100 | 0.0 | 0.0 | 0.00 | 0.00 | 0.00 | 93 | 1012.5 |
| 20260506101544 | 67 | 100 | 0.0 | 0.0 | 0.00 | 0.00 | 0.00 | 93 | 1012.4 |
| 20260506101202 | 68 | 100 | 0.0 | 0.0 | 0.00 | 0.00 | 0.00 | 93 | 1012.3 |
| 20260506100702 | 68 | 100 | 0.0 | 0.0 | 0.00 | 0.00 | 0.00 | 93 | 1012.3 |
| 20260506100200 | 68 | 100 | 0.0 | 0.0 | 0.00 | 0.00 | 0.00 | 93 | 1012.3 |
| 20260506100035 | 67 | 100 | 0.0 | 0.0 | 0.00 | 0.00 | 0.00 | 93 | 1012.1 |
| 20260506095700 | 68 | 100 | 0.0 | 0.0 | 0.00 | 0.00 | 0.00 | 93 | 1012.2 |
| 20260506095157 | 68 | 100 | 0.0 | 0.0 | 0.00 | 0.00 | 0.00 | 93 | 1012.2 |
| 20260506094656 | 68 | 100 | 0.0 | 0.0 | 0.00 | 0.00 | 0.00 | 93 | 1012.2 |
| 20260506094522 | 67 | 100 | 0.0 | 0.0 | 0.00 | 0.00 | 0.00 | 93 | 1012.1 |
| 20260506094157 | 68 | 100 | 0.0 | 0.0 | 0.00 | 0.00 | 0.00 | 93 | 1012.2 |
| 20260506093705 | 68 | 100 | 0.0 | 0.0 | 0.00 | 0.00 | 0.00 | 93 | 1012.2 |
| 20260506093445 | 68 | 100 | 0.0 | 0.0 | 0.00 | 0.00 | 0.00 | 93 | 1012.2 |
| 20260506093001 | 67 | 100 | 0.0 | 0.0 | 0.00 | 0.00 | 0.00 | 93 | 1011.9 |
| 20260506092650 | 68 | 100 | 0.0 | 0.0 | 0.00 | 0.00 | 0.00 | 93 | 1012.0 |
| 20260506092154 | 68 | 100 | 0.0 | 0.0 | 0.00 | 0.00 | 0.00 | 93 | 1012.0 |
| 20260506091656 | 68 | 100 | 0.0 | 0.0 | 0.00 | 0.00 | 0.00 | 93 | 1012.0 |
| 20260506091545 | 68 | 100 | 0.0 | 0.0 | 0.00 | 0.00 | 0.00 | 93 | 1011.9 |
| 20260506091153 | 68 | 100 | 0.0 | 0.0 | 0.00 | 0.00 | 0.00 | 93 | 1012.0 |
| 20260506090740 | 68 | 100 | 0.0 | 0.0 | 0.00 | 0.00 | 0.00 | 93 | 1012.0 |
| 20260506090724 | 68 | 100 | 0.0 | 0.0 | 0.00 | 0.00 | 0.00 | 93 | 1012.0 |
| 20260506090032 | 68 | 100 | 0.0 | 0.0 | 0.00 | 0.00 | 0.00 | 93 | 1011.9 |
| 20260506085648 | 68 | 100 | 0.0 | 0.0 | 0.00 | 0.00 | 0.00 | 93 | 1012.0 |
| 20260506085136 | 68 | 100 | 0.0 | 0.0 | 0.00 | 0.00 | 0.00 | 93 | 1012.0 |
| 20260506084633 | 68 | 100 | 0.0 | 0.0 | 0.00 | 0.00 | 0.00 | 93 | 1012.0 |
| 20260506084524 | 68 | 100 | 0.0 | 0.0 | 0.00 | 0.00 | 0.00 | 93 | 1011.9 |
| 20260506084137 | 69 | 100 | 0.0 | 0.0 | 0.00 | 0.00 | 0.00 | 93 | 1012.0 |
| 20260506083636 | 69 | 100 | 0.0 | 0.0 | 0.00 | 0.00 | 0.00 | 93 | 1012.0 |
| 20260506083132 | 69 | 100 | 0.0 | 0.0 | 0.00 | 0.00 | 0.00 | 93 | 1012.0 |
| 20260506083006 | 68 | 100 | 0.0 | 0.0 | 0.00 | 0.00 | 0.00 | 93 | 1012.0 |
| 20260506082917 | 69 | 100 | 0.0 | 0.0 | 0.00 | 0.00 | 0.00 | 93 | 1012.1 |
| 20260506082130 | 69 | 100 | 0.0 | 0.0 | 0.00 | 0.00 | 0.00 | 93 | 1012.1 |
| 20260506081630 | 69 | 100 | 0.0 | 0.0 | 0.00 | 0.00 | 0.00 | 92 | 1012.1 |
| 20260506081501 | 68 | 100 | 0.0 | 0.0 | 0.00 | 0.00 | 0.00 | 92 | 1012.0 |
| 20260506081130 | 69 | 100 | 0.0 | 0.0 | 0.00 | 0.00 | 0.00 | 92 | 1012.1 |
| 20260506080919 | 69 | 100 | 0.0 | 0.0 | 0.00 | 0.00 | 0.00 | 92 | 1012.1 |
| 20260506080130 | 69 | 100 | 0.0 | 0.0 | 0.00 | 0.00 | 0.00 | 92 | 1012.1 |
| 20260506073133 | 70 | 100 | 0.0 | 0.0 | 0.00 | 0.00 | 0.00 | 92 | 1012.3 |
| 20260506073035 | 69 | 100 | 0.0 | 0.0 | 0.00 | 0.00 | 0.00 | 92 | 1012.3 |
| 20260506072632 | 70 | 100 | 0.0 | 0.0 | 0.00 | 0.00 | 0.00 | 92 | 1012.4 |
| 20260506072415 | 70 | 100 | 0.0 | 0.0 | 0.00 | 0.00 | 0.00 | 92 | 1012.4 |
| 20260506071630 | 70 | 100 | 0.0 | 0.0 | 0.00 | 0.00 | 0.00 | 91 | 1012.4 |
| 20260506071519 | 69 | 100 | 0.0 | 0.0 | 0.00 | 0.00 | 0.00 | 91 | 1012.2 |
| 20260506071130 | 70 | 100 | 0.0 | 0.0 | 0.00 | 0.00 | 0.00 | 91 | 1012.3 |
| 20260506070631 | 70 | 100 | 0.0 | 0.0 | 0.00 | 0.00 | 0.00 | 91 | 1012.3 |
| 20260506070130 | 70 | 100 | 0.0 | 0.0 | 0.00 | 0.00 | 0.00 | 91 | 1012.3 |
| 20260506062131 | 71 | 100 | 0.0 | 0.0 | 0.00 | 0.00 | 0.00 | 90 | 1012.5 |
| 20260506061631 | 71 | 100 | 0.0 | 0.0 | 0.00 | 0.00 | 0.00 | 90 | 1012.5 |
| 20260506061538 | 71 | 100 | 0.0 | 0.0 | 0.00 | 0.00 | 0.00 | 90 | 1012.4 |
| 20260506061131 | 71 | 100 | 0.0 | 0.0 | 0.00 | 0.00 | 0.00 | 90 | 1012.6 |
| 20260506060630 | 71 | 100 | 0.0 | 0.0 | 0.00 | 0.00 | 0.00 | 90 | 1012.6 |
| 20260506060131 | 71 | 100 | 0.0 | 0.0 | 0.00 | 0.00 | 0.00 | 89 | 1012.6 |
| 20260506051131 | 73 | 100 | 0.0 | 1.0 | 0.00 | 0.00 | 0.00 | 87 | 1012.9 |
| 20260506050632 | 74 | 100 | 0.0 | 1.0 | 0.00 | 0.00 | 0.00 | 87 | 1012.9 |
| 20260506050131 | 74 | 98 | 0.0 | 2.0 | 0.00 | 0.00 | 0.00 | 87 | 1012.9 |
| 20260506044628 | 73 | 107 | 0.0 | 0.0 | 0.00 | 0.00 | 0.00 | 87 | 1012.9 |
| 20260506044539 | 73 | 107 | 0.0 | 0.0 | 0.00 | 0.00 | 0.00 | 87 | 1012.7 |
| 20260506044130 | 74 | 107 | 0.0 | 0.0 | 0.00 | 0.00 | 0.00 | 87 | 1012.9 |
| 20260506043631 | 74 | 107 | 0.0 | 0.0 | 0.00 | 0.00 | 0.00 | 86 | 1012.9 |
| 20260506043129 | 74 | 107 | 0.0 | 0.0 | 0.00 | 0.00 | 0.00 | 86 | 1012.9 |
| 20260506043031 | 73 | 107 | 0.0 | 0.0 | 0.00 | 0.00 | 0.00 | 86 | 1012.9 |
| 20260506042632 | 74 | 107 | 0.0 | 0.0 | 0.00 | 0.00 | 0.00 | 86 | 1013.1 |
| 20260506042130 | 74 | 107 | 0.0 | 1.0 | 0.00 | 0.00 | 0.00 | 85 | 1013.1 |
| 20260506041630 | 74 | 101 | 0.0 | 1.0 | 0.00 | 0.00 | 0.00 | 85 | 1013.1 |
| 20260506041507 | 74 | 101 | 0.0 | 1.0 | 0.00 | 0.00 | 0.00 | 85 | 1013.0 |
| 20260506041130 | 74 | 101 | 0.0 | 1.0 | 0.00 | 0.00 | 0.00 | 85 | 1013.1 |
| 20260506040925 | 74 | 101 | 0.0 | 2.0 | 0.00 | 0.00 | 0.00 | 85 | 1013.1 |
| 20260506040130 | 74 | 101 | 1.0 | 2.0 | 0.00 | 0.00 | 0.00 | 85 | 1013.1 |
| 20260506040002 | 74 | 101 | 1.0 | 2.0 | 0.00 | 0.00 | 0.00 | 84 | 1013.0 |
| 20260506035930 | 74 | 107 | 1.0 | 3.0 | 0.00 | 0.00 | 0.00 | 84 | 1013.2 |
| 20260506035126 | 75 | 88 | 2.0 | 3.0 | 0.00 | 0.00 | 0.00 | 84 | 1013.2 |
| 20260506034619 | 75 | 101 | 1.0 | 3.0 | 0.00 | 0.00 | 0.00 | 84 | 1013.2 |
| 20260506034532 | 74 | 97 | 1.0 | 3.0 | 0.00 | 0.00 | 0.00 | 84 | 1013.2 |
| 20260506034408 | 75 | 98 | 1.0 | 3.0 | 0.00 | 0.00 | 0.00 | 84 | 1013.4 |
| 20260506033611 | 75 | 112 | 2.0 | 4.0 | 0.00 | 0.00 | 0.00 | 84 | 1013.4 |
| 20260506033110 | 75 | 84 | 2.0 | 4.0 | 0.00 | 0.00 | 0.00 | 83 | 1013.4 |
| 20260506033018 | 74 | 84 | 1.0 | 4.0 | 0.00 | 0.00 | 0.00 | 83 | 1013.1 |
| 20260506032609 | 75 | 92 | 2.0 | 3.0 | 0.00 | 0.00 | 0.00 | 83 | 1013.3 |
| 20260506032107 | 75 | 92 | 2.0 | 3.0 | 0.00 | 0.00 | 0.00 | 83 | 1013.3 |
| 20260506031606 | 75 | 97 | 2.0 | 3.0 | 0.00 | 0.00 | 0.00 | 82 | 1013.3 |
| 20260506031506 | 75 | 99 | 2.0 | 3.0 | 0.00 | 0.00 | 0.00 | 82 | 1013.1 |
| 20260506031355 | 75 | 80 | 2.0 | 5.0 | 0.00 | 0.00 | 0.00 | 82 | 1013.2 |
| 20260506030853 | 75 | 91 | 2.0 | 5.0 | 0.00 | 0.00 | 0.00 | 82 | 1013.2 |
| 20260506030357 | 75 | 96 | 2.0 | 5.0 | 0.00 | 0.00 | 0.00 | 82 | 1013.2 |
| 20260506030048 | 75 | 92 | 1.0 | 3.0 | 0.00 | 0.00 | 0.00 | 82 | 1013.1 |
| 20260506025603 | 75 | 110 | 2.0 | 5.0 | 0.00 | 0.00 | 0.00 | 82 | 1013.1 |
| 20260506025102 | 75 | 88 | 2.0 | 5.0 | 0.00 | 0.00 | 0.00 | 82 | 1013.1 |
| 20260506024604 | 75 | 85 | 2.0 | 5.0 | 0.00 | 0.00 | 0.00 | 81 | 1013.1 |
| 20260506024539 | 75 | 96 | 2.0 | 4.0 | 0.00 | 0.00 | 0.00 | 81 | 1012.8 |
| 20260506024102 | 75 | 92 | 3.0 | 6.0 | 0.00 | 0.00 | 0.00 | 81 | 1012.9 |
| 20260506023602 | 75 | 79 | 3.0 | 6.0 | 0.00 | 0.00 | 0.00 | 81 | 1012.9 |
| 20260506023101 | 75 | 98 | 2.0 | 5.0 | 0.00 | 0.00 | 0.00 | 81 | 1012.9 |
| 20260506023032 | 75 | 120 | 2.0 | 4.0 | 0.00 | 0.00 | 0.00 | 81 | 1012.8 |
| 20260506022740 | 75 | 82 | 2.0 | 6.0 | 0.00 | 0.00 | 0.00 | 81 | 1013.0 |
| 20260506022734 | 75 | 80 | 2.0 | 4.0 | 0.00 | 0.00 | 0.00 | 80 | 1013.0 |
| 20260506022704 | 75 | 97 | 2.0 | 6.0 | 0.00 | 0.00 | 0.00 | 81 | 1013.0 |
| 20260506021509 | 75 | 85 | 1.0 | 4.0 | 0.00 | 0.00 | 0.00 | 80 | 1012.6 |
| 20260506021104 | 75 | 84 | 2.0 | 4.0 | 0.00 | 0.00 | 0.00 | 80 | 1012.8 |
| 20260506020605 | 75 | 100 | 2.0 | 5.0 | 0.00 | 0.00 | 0.00 | 80 | 1012.8 |
| 20260506020106 | 75 | 92 | 2.0 | 6.0 | 0.00 | 0.00 | 0.00 | 80 | 1012.8 |
| 20260506020001 | 75 | 89 | 2.0 | 5.0 | 0.00 | 0.00 | 0.00 | 80 | 1012.5 |
| 20260506015601 | 75 | 88 | 2.0 | 6.0 | 0.00 | 0.00 | 0.00 | 79 | 1012.6 |
| 20260506015100 | 75 | 109 | 2.0 | 3.0 | 0.00 | 0.00 | 0.00 | 79 | 1012.6 |
| 20260506014952 | 75 | 84 | 2.0 | 3.0 | 0.00 | 0.00 | 0.00 | 79 | 1012.5 |
| 20260506014639 | 75 | 92 | 2.0 | 3.0 | 0.00 | 0.00 | 0.00 | 79 | 1012.6 |
| 20260506014617 | 75 | 84 | 1.0 | 3.0 | 0.00 | 0.00 | 0.00 | 79 | 1012.4 |